When you browse on this site, cookies collect data to enhance your experience and personalize the content and advertising you see.
Visit our Privacy Policy to learn more. By continuing to use the site, you agree to this use of cookies and data.
  • In Schweiz
  • Länderverzeichnis
  • Für 7 Tage
  • Wassertemperatur
  • Wetterkarte
  • Widgets
  • user-avatar
    Anmelden

    Stündliche Wetter Bristol

    Heute, 15 Dezember, Sonntag

    Zeit Temperatur Niederschläge Wind Luftdruck Luftfeuchtigkeit
    00:00 +5°C° 0 mm 10 m/S 737 mmHg 90%
    01:00 +3°C° 0.2 mm 10 m/S 738 mmHg 84%
    02:00 +3°C° 0.2 mm 9 m/S 739 mmHg 78%
    03:00 +2°C° 0.2 mm 9 m/S 740 mmHg 73%
    04:00 +2°C° 0 mm 8 m/S 741 mmHg 74%
    05:00 +2°C° 0 mm 8 m/S 741 mmHg 76%
    06:00 +3°C° 0 mm 6 m/S 741 mmHg 82%
    07:00 +3°C° 0.4 mm 6 m/S 742 mmHg 83%
    08:00 +3°C° 0.4 mm 6 m/S 743 mmHg 85%
    09:00 +5°C° 0.4 mm 5 m/S 743 mmHg 86%
    10:00 +5°C° 0.2 mm 6 m/S 744 mmHg 82%
    11:00 +5°C° 0.2 mm 7 m/S 744 mmHg 78%
    12:00 +7°C° 0 mm 6 m/S 745 mmHg 79%
    13:00 +7°C° 0.1 mm 6 m/S 745 mmHg 79%
    14:00 +5°C° 0.1 mm 6 m/S 745 mmHg 79%
    15:00 +5°C° 0.1 mm 6 m/S 745 mmHg 79%
    16:00 +5°C° 0.1 mm 6 m/S 745 mmHg 80%
    17:00 +4°C° 0.1 mm 6 m/S 745 mmHg 82%
    18:00 +4°C° 0.1 mm 6 m/S 745 mmHg 84%
    19:00 +4°C° 0.3 mm 6 m/S 746 mmHg 84%
    20:00 +4°C° 0.3 mm 6 m/S 746 mmHg 84%
    21:00 +4°C° 0.3 mm 6 m/S 746 mmHg 84%
    22:00 +4°C° 0.2 mm 6 m/S 746 mmHg 84%
    23:00 +4°C° 0.2 mm 6 m/S 746 mmHg 84%

    Morgen, 16 Dezember, Montag

    Zeit Temperatur Niederschläge Wind Luftdruck Luftfeuchtigkeit
    00:00 +4°C° 0.2 mm 6 m/S 746 mmHg 83%
    01:00 +4°C° 0 mm 6 m/S 746 mmHg 83%
    02:00 +5°C° 0 mm 5 m/S 746 mmHg 83%
    03:00 +3°C° 0 mm 5 m/S 746 mmHg 83%
    04:00 +4°C° 0 mm 4 m/S 746 mmHg 84%
    05:00 +4°C° 0 mm 4 m/S 746 mmHg 84%
    06:00 +4°C° 0 mm 3 m/S 746 mmHg 84%
    07:00 +4°C° 0 mm 3 m/S 747 mmHg 84%
    08:00 +4°C° 0 mm 3 m/S 747 mmHg 85%
    09:00 +4°C° 0 mm 3 m/S 748 mmHg 86%
    10:00 +5°C° 0 mm 2 m/S 748 mmHg 83%
    11:00 +6°C° 0 mm 2 m/S 748 mmHg 81%
    12:00 +7°C° 0 mm 2 m/S 748 mmHg 79%
    13:00 +7°C° 0 mm 2 m/S 748 mmHg 81%
    14:00 +8°C° 0 mm 1 m/S 748 mmHg 82%
    15:00 +8°C° 0 mm 1 m/S 748 mmHg 84%
    16:00 +7°C° 0 mm 1 m/S 748 mmHg 85%
    17:00 +6°C° 0 mm 1 m/S 747 mmHg 86%
    18:00 +6°C° 0 mm 1 m/S 747 mmHg 87%
    19:00 +6°C° 0 mm 1 m/S 747 mmHg 88%
    20:00 +6°C° 0 mm 1 m/S 747 mmHg 89%
    21:00 +6°C° 0 mm 1 m/S 747 mmHg 90%
    22:00 +6°C° 0 mm 1 m/S 747 mmHg 91%
    23:00 +6°C° 0 mm 1 m/S 747 mmHg 92%

    übermorgen, 17 Dezember, Dienstag

    Zeit Temperatur Niederschläge Wind Luftdruck Luftfeuchtigkeit
    00:00 +6°C° 0 mm 1 m/S 747 mmHg 93%
    01:00 +6°C° 0 mm 1 m/S 747 mmHg 93%
    02:00 +6°C° 0 mm 1 m/S 747 mmHg 93%
    03:00 +6°C° 0 mm 1 m/S 746 mmHg 93%
    04:00 +5°C° 0 mm 2 m/S 746 mmHg 93%
    05:00 +5°C° 0 mm 2 m/S 746 mmHg 93%
    06:00 +5°C° 0 mm 2 m/S 746 mmHg 93%
    07:00 +5°C° 0 mm 2 m/S 746 mmHg 93%
    08:00 +5°C° 0 mm 2 m/S 746 mmHg 93%
    09:00 +5°C° 0 mm 2 m/S 746 mmHg 93%
    10:00 +5°C° 0 mm 2 m/S 747 mmHg 91%
    11:00 +7°C° 0 mm 1 m/S 747 mmHg 89%
    12:00 +7°C° 0 mm 1 m/S 747 mmHg 87%
    13:00 +7°C° 0 mm 1 m/S 747 mmHg 88%
    14:00 +7°C° 0 mm 1 m/S 748 mmHg 89%
    15:00 +7°C° 0 mm 1 m/S 748 mmHg 89%
    16:00 +6°C° 0 mm 1 m/S 749 mmHg 90%
    17:00 +6°C° 0 mm 1 m/S 749 mmHg 91%
    18:00 +4°C° 0 mm 2 m/S 749 mmHg 92%
    19:00 +4°C° 0 mm 2 m/S 750 mmHg 91%
    20:00 +3°C° 0 mm 2 m/S 750 mmHg 91%
    21:00 +3°C° 0 mm 2 m/S 751 mmHg 91%
    22:00 +3°C° 0 mm 2 m/S 751 mmHg 90%
    23:00 +4°C° 0 mm 1 m/S 751 mmHg 88%

    18 Dezember, Mittwoch

    Zeit Temperatur Niederschläge Wind Luftdruck Luftfeuchtigkeit
    00:00 +3°C° 0 mm 1 m/S 752 mmHg 87%
    01:00 +3°C° 0 mm 1 m/S 752 mmHg 87%
    02:00 +2°C° 0 mm 2 m/S 752 mmHg 87%
    03:00 +2°C° 0 mm 2 m/S 752 mmHg 87%
    04:00 +2°C° 0 mm 2 m/S 752 mmHg 86%
    05:00 +2°C° 0 mm 2 m/S 752 mmHg 86%
    06:00 +2°C° 0 mm 2 m/S 753 mmHg 85%
    07:00 +2°C° 0 mm 2 m/S 753 mmHg 85%
    08:00 +2°C° 0 mm 2 m/S 753 mmHg 85%
    09:00 +1°C° 0 mm 3 m/S 753 mmHg 86%
    10:00 +3°C° 0 mm 3 m/S 752 mmHg 85%
    11:00 +4°C° 0 mm 4 m/S 752 mmHg 84%
    12:00 +6°C° 0 mm 5 m/S 752 mmHg 83%
    13:00 +6°C° 0 mm 5 m/S 751 mmHg 84%
    14:00 +6°C° 0 mm 5 m/S 751 mmHg 85%
    15:00 +5°C° 0 mm 6 m/S 750 mmHg 87%
    16:00 +4°C° 0 mm 6 m/S 749 mmHg 87%
    17:00 +4°C° 0 mm 6 m/S 749 mmHg 88%
    18:00 +3°C° 0 mm 7 m/S 748 mmHg 88%
    19:00 +4°C° 0 mm 7 m/S 747 mmHg 88%
    20:00 +4°C° 0 mm 8 m/S 747 mmHg 87%
    21:00 +4°C° 0 mm 8 m/S 747 mmHg 86%
    22:00 +4°C° 0.1 mm 8 m/S 745 mmHg 87%
    23:00 +5°C° 0.1 mm 9 m/S 744 mmHg 87%

    19 Dezember, Donnerstag

    Zeit Temperatur Niederschläge Wind Luftdruck Luftfeuchtigkeit
    00:00 +5°C° 0.1 mm 9 m/S 743 mmHg 88%
    01:00 +6°C° 1.5 mm 9 m/S 742 mmHg 89%
    02:00 +6°C° 1.5 mm 10 m/S 740 mmHg 91%
    03:00 +6°C° 1.5 mm 10 m/S 739 mmHg 92%
    04:00 +7°C° 1.6 mm 10 m/S 738 mmHg 89%
    05:00 +7°C° 1.6 mm 11 m/S 738 mmHg 86%
    06:00 +8°C° 1.6 mm 11 m/S 737 mmHg 83%
    07:00 +7°C° 0.1 mm 9 m/S 738 mmHg 85%
    08:00 +6°C° 0.1 mm 7 m/S 739 mmHg 86%
    09:00 +6°C° 0.1 mm 5 m/S 740 mmHg 87%
    10:00 +7°C° 0 mm 5 m/S 741 mmHg 86%
    11:00 +8°C° 0 mm 5 m/S 742 mmHg 84%
    12:00 +9°C° 0 mm 5 m/S 743 mmHg 82%
    13:00 +8°C° 0 mm 4 m/S 743 mmHg 83%
    14:00 +8°C° 0 mm 4 m/S 743 mmHg 84%
    15:00 +8°C° 0 mm 4 m/S 743 mmHg 85%
    16:00 +7°C° 0 mm 4 m/S 743 mmHg 88%
    17:00 +7°C° 0 mm 3 m/S 743 mmHg 90%
    18:00 +5°C° 0 mm 3 m/S 743 mmHg 93%
    19:00 +5°C° 0 mm 3 m/S 743 mmHg 93%
    20:00 +5°C° 0 mm 3 m/S 743 mmHg 93%
    21:00 +5°C° 0 mm 3 m/S 743 mmHg 94%
    22:00 +5°C° 0 mm 3 m/S 743 mmHg 94%
    23:00 +5°C° 0 mm 3 m/S 742 mmHg 94%

    20 Dezember, Freitag

    Zeit Temperatur Niederschläge Wind Luftdruck Luftfeuchtigkeit
    00:00 +5°C° 0 mm 3 m/S 742 mmHg 94%
    01:00 +5°C° 0.1 mm 3 m/S 742 mmHg 94%
    02:00 +5°C° 0.1 mm 3 m/S 741 mmHg 94%
    03:00 +5°C° 0.1 mm 3 m/S 741 mmHg 95%
    04:00 +5°C° 0.3 mm 3 m/S 741 mmHg 95%
    05:00 +5°C° 0.3 mm 3 m/S 740 mmHg 94%
    06:00 +7°C° 0.3 mm 3 m/S 740 mmHg 94%
    07:00 +7°C° 0.1 mm 3 m/S 740 mmHg 94%
    08:00 +5°C° 0.1 mm 3 m/S 740 mmHg 94%
    09:00 +5°C° 0.1 mm 3 m/S 740 mmHg 94%
    10:00 +7°C° 0 mm 3 m/S 740 mmHg 92%
    11:00 +8°C° 0 mm 3 m/S 740 mmHg 90%
    12:00 +9°C° 0 mm 2 m/S 740 mmHg 89%
    13:00 +9°C° 0.1 mm 2 m/S 740 mmHg 89%
    14:00 +8°C° 0.1 mm 2 m/S 740 mmHg 90%
    15:00 +8°C° 0.1 mm 2 m/S 740 mmHg 91%
    16:00 +8°C° 0.4 mm 2 m/S 740 mmHg 92%
    17:00 +8°C° 0.4 mm 2 m/S 741 mmHg 92%
    18:00 +7°C° 0.4 mm 2 m/S 741 mmHg 93%
    19:00 +7°C° 0.4 mm 2 m/S 741 mmHg 92%
    20:00 +7°C° 0.4 mm 2 m/S 741 mmHg 92%
    21:00 +7°C° 0.4 mm 2 m/S 742 mmHg 92%
    22:00 +7°C° 0 mm 2 m/S 742 mmHg 92%
    23:00 +6°C° 0 mm 2 m/S 742 mmHg 93%
    Mehr zeigen